Theta_e
292 289 286 288 289 287 287 285 284 285 289 288 288 288 291 292 292 293 293 294 295 295 297 298 298 298 307 316 320 325 327 330 330 329 327 328 327 328 326 324 322 320 320 319
288 285 290 291 288 287 286 285 284 286 289 289 287 288 290 291 292 294 294 294 293 294 294 296 296 296 297 306 316 320 325 328 329 330 330 329 328 329 328 326 323 321 320 319
286 287 290 289 286 286 284 284 284 285 286 285 284 284 285 287 289 291 292 292 292 292 293 294 294 294 295 295 306 317 321 326 329 331 330 326 324 323 326 325 323 322 321 320
286 288 287 286 285 286 283 287 286 286 284 281 284 278 283 286 288 289 290 290 291 293 295 296 296 297 297 296 296 310 318 322 326 329 329 326 325 323 325 326 325 323 323 321
284 287 286 285 286 288 285 288 287 285 283 282 281 280 282 284 287 288 289 291 291 292 294 294 295 297 298 302 298 297 309 318 321 326 328 327 325 326 325 325 324 323 322 323
286 289 288 288 287 288 289 286 285 283 281 277 280 281 279 283 285 286 288 292 293 293 294 294 295 296 297 300 306 307 307 312 317 322 326 327 325 324 320 322 322 322 321 321
285 286 288 290 287 289 285 284 278 277 276 276 280 279 281 286 288 288 289 293 293 293 293 293 294 295 296 297 300 307 310 310 315 319 323 323 324 323 320 320 321 317 314 309
281 279 287 289 287 286 284 284 279 273 274 276 280 279 283 287 290 291 293 293 293 293 293 293 294 295 295 296 298 300 304 309 312 314 315 316 317 317 317 318 319 319 317 316
280 280 287 288 289 290 285 282 284 278 269 274 278 282 286 289 291 291 292 292 291 292 293 293 293 294 295 296 296 298 299 300 304 309 311 312 312 311 311 311 313 314 313 309
286 280 285 288 289 288 286 288 281 279 270 270 275 278 280 286 288 290 290 291 291 291 291 292 292 292 293 294 295 297 298 298 299 301 303 305 307 307 307 307 307 306 305 303
287 284 282 286 285 284 284 283 283 283 280 274 271 277 283 287 289 289 290 290 290 290 291 291 291 292 292 293 294 294 295 296 297 298 299 300 301 301 303 305 304 303 300 302
287 286 280 283 286 288 285 285 285 281 277 277 277 278 287 290 291 292 290 289 290 290 290 290 291 291 291 291 292 292 293 294 295 296 297 297 298 298 298 298 298 297 298 296
289 283 274 279 283 284 283 284 284 283 282 278 276 280 288 289 290 290 289 290 290 289 289 289 289 289 289 289 290 290 290 291 292 294 295 295 295 295 296 296 295 294 293 293
294 285 284 280 281 285 283 284 285 286 280 281 281 282 285 287 289 289 288 289 288 288 288 287 287 287 288 288 288 288 288 289 290 292 293 293 293 293 294 293 292 292 292 291
291 283 284 284 284 285 285 284 285 285 287 282 285 283 288 290 289 290 289 288 286 286 287 287 287 287 287 287 287 287 287 287 288 289 289 289 290 290 290 291 291 290 290 290
290 280 283 282 284 285 282 285 287 288 288 286 283 283 287 291 290 288 288 287 286 286 287 287 287 286 286 286 286 286 286 286 286 286 285 286 286 287 287 288 287 288 288 287
288 285 281 278 283 285 282 284 285 287 289 288 284 288 289 287 289 288 286 287 287 287 287 287 286 286 286 285 285 284 285 285 284 284 284 284 284 284 285 285 285 285 286 285
286 286 285 281 284 277 284 283 287 288 287 288 286 288 291 290 288 287 288 287 286 287 287 287 286 286 285 284 283 284 284 283 283 282 282 282 282 282 282 282 283 283 284 284
290 286 281 279 280 281 283 282 284 285 286 288 289 286 286 285 286 286 288 288 287 287 287 287 286 285 282 281 282 283 282 282 282 281 281 281 281 279 280 279 281 282 282 281
288 289 284 277 277 275 279 281 285 288 282 286 290 286 285 286 284 284 288 287 286 286 285 284 283 281 280 279 280 281 280 279 279 279 280 280 279 276 277 279 279 280 279 282
283 283 280 279 278 277 282 284 285 279 281 282 290 288 286 286 286 286 285 284 284 282 280 280 280 279 278 278 278 278 278 276 277 277 277 277 276 275 276 277 281 282 284 283
282 282 282 278 276 274 282 284 283 284 283 284 284 287 286 282 283 284 283 282 281 279 278 278 277 276 276 276 275 275 274 274 273 273 274 273 273 274 276 272 276 281 282 280
281 283 281 282 281 283 283 284 286 285 284 283 283 284 284 282 282 282 280 279 278 277 276 274 273 274 273 272 272 270 271 270 269 267 269 271 273 273 273 272 275 278 280 282
276 279 281 282 281 282 284 283 284 285 285 284 285 284 284 282 282 281 279 278 276 275 273 271 271 271 270 268 268 266 267 266 261 263 266 270 272 275 275 275 275 278 280 281
279 280 277 277 279 282 283 285 285 282 282 282 281 282 282 282 280 279 276 275 274 272 271 270 269 268 267 266 265 263 263 261 261 263 266 267 269 269 273 276 276 278 280 281
278 279 280 279 283 284 285 286 283 282 282 282 281 278 278 280 278 276 274 273 271 269 268 267 266 265 264 263 263 261 258 258 257 261 264 265 265 267 269 274 276 280 282 283
Wind_Speed
2 4 6 6 7 4 6 5 4 2 1 1 4 8 11 6 6 8 10 10 9 10 4 4 7 7 8 11 14 15 15 17 13 11 10 10 10 9 8 8 12 12 11 14
5 5 7 6 6 6 5 4 4 0 3 2 4 10 11 6 8 7 8 8 7 8 7 7 7 5 7 10 14 15 17 16 16 12 12 9 10 9 8 9 11 12 13 14
7 3 8 7 5 7 3 6 4 2 1 3 4 8 7 4 3 5 4 6 4 6 8 7 7 5 4 6 9 12 13 14 15 16 11 4 3 2 7 8 9 12 14 14
4 2 6 5 4 6 5 7 5 4 3 4 3 6 7 5 10 4 2 6 6 6 5 5 7 6 5 5 5 7 8 11 11 13 12 13 11 10 8 8 8 9 14 15
6 9 8 5 7 8 6 6 6 3 4 1 3 1 9 3 7 4 3 6 5 6 5 6 7 7 5 6 4 4 5 6 8 11 13 13 13 9 5 6 10 10 11 15
3 1 4 6 4 3 11 8 8 4 3 2 6 6 6 5 5 3 2 5 5 5 6 6 5 6 6 8 8 5 2 2 5 9 12 13 13 11 5 7 8 7 6 9
2 2 3 5 8 5 2 7 3 3 2 6 2 2 8 6 4 3 2 4 5 5 6 6 8 8 8 10 9 8 7 5 3 6 10 14 14 10 7 7 7 6 5 3
9 5 8 4 6 10 7 7 9 9 5 3 2 8 8 2 4 3 4 4 5 7 5 6 7 6 7 8 9 8 7 6 5 2 2 2 4 3 3 5 5 5 6 8
7 6 0 2 3 10 7 7 5 9 3 4 5 7 7 3 4 3 5 5 4 6 7 5 7 7 7 8 8 7 7 6 6 5 3 2 2 2 3 4 3 3 2 3
9 4 2 2 3 1 7 10 5 3 5 4 5 5 6 4 7 5 5 7 5 4 6 8 8 8 7 6 6 8 7 7 5 5 4 3 4 3 1 1 3 3 1 1
7 5 1 4 8 10 4 4 3 6 6 8 3 8 7 8 8 9 7 6 5 7 7 7 6 6 5 6 8 7 8 6 7 5 4 4 3 3 2 2 2 2 2 4
7 6 5 10 4 4 2 8 8 8 7 1 3 8 2 9 10 7 7 6 4 6 5 5 5 6 8 9 8 8 7 7 5 4 4 5 4 4 2 2 2 3 4 2
9 4 4 5 4 2 4 3 4 6 4 8 7 8 3 6 6 5 8 6 5 5 6 6 7 6 7 7 8 9 9 9 8 6 5 5 5 5 5 4 1 1 3 3
12 3 16 18 7 10 7 8 8 8 5 9 12 5 5 7 8 6 6 6 5 5 5 4 5 6 6 6 7 8 9 9 9 8 8 9 7 5 4 2 3 3 3 4
8 8 4 1 4 6 7 10 14 14 22 12 16 11 17 18 14 9 8 7 7 6 5 5 5 5 5 6 5 5 5 6 5 7 9 7 6 6 6 7 7 5 3 4
4 2 3 3 2 4 4 11 21 24 22 16 5 9 2 7 10 8 9 10 9 8 7 6 6 5 5 5 4 3 4 5 5 6 7 6 7 7 6 6 6 6 6 5
7 7 4 7 6 5 6 19 15 15 16 18 18 13 7 5 12 13 12 10 10 9 7 7 6 5 4 4 3 4 4 3 5 5 5 6 6 6 7 6 5 5 4 3
6 7 3 3 8 9 7 2 9 18 8 8 3 8 17 11 6 7 6 10 9 8 7 6 5 4 4 4 5 4 5 5 5 6 6 7 8 7 7 6 6 5 3 4
6 5 4 5 7 4 4 6 9 12 18 13 12 6 5 10 7 1 6 5 7 7 6 5 5 4 4 4 4 4 6 6 7 9 8 8 8 8 8 7 7 4 4 4
6 6 4 2 4 10 6 2 4 6 12 11 17 15 15 12 9 7 11 8 7 7 5 6 5 4 5 5 4 5 6 7 9 9 8 7 6 6 6 6 6 3 3 4
7 4 8 5 4 8 5 5 4 8 7 2 13 17 21 12 2 11 11 6 6 6 7 5 6 6 5 6 5 7 6 8 8 8 7 6 6 6 5 6 4 5 7 4
9 8 4 4 2 9 6 4 10 5 2 4 6 11 14 9 12 14 11 10 9 8 6 5 5 5 6 8 6 6 7 9 8 9 8 8 7 6 5 5 5 4 6 5
6 7 7 9 8 3 7 2 1 4 5 6 7 7 13 15 10 12 10 9 7 7 6 4 4 4 5 7 7 6 8 10 10 8 8 8 7 6 6 6 8 6 4 5
4 3 4 3 4 4 5 1 2 5 6 6 6 12 14 13 15 12 9 9 6 5 4 1 2 5 5 6 7 5 8 9 7 8 9 8 8 10 8 5 5 6 6 7
4 8 7 4 0 1 4 8 5 3 6 11 8 7 11 16 10 10 8 7 6 6 3 3 4 5 5 5 4 4 6 6 7 6 7 7 7 8 9 7 8 8 8 8
6 7 7 8 9 6 6 11 9 10 9 10 11 7 5 9 11 9 8 6 5 5 3 4 4 4 3 4 4 3 3 4 5 8 7 7 7 7 7 8 9 11 15 17
Wind_Direction
27 124 196 176 188 134 119 121 158 241 59 206 239 274 269 281 284 259 252 263 261 258 280 244 259 242 218 213 207 201 191 198 190 192 188 193 192 184 183 185 185 185 185 185
66 221 203 120 126 113 122 128 207 360 39 165 356 284 273 256 247 246 264 259 282 288 302 303 296 264 222 218 213 208 204 194 197 198 201 203 199 201 188 189 188 187 189 187
154 240 146 130 143 129 121 152 178 170 54 49 329 295 316 312 288 283 299 270 289 288 311 337 343 319 291 243 221 216 208 201 198 202 200 177 138 122 185 190 189 195 190 190
194 102 131 106 164 124 177 199 140 139 103 234 6 279 299 326 306 274 9 20 1 5 353 358 3 4 354 311 247 219 201 198 200 195 199 198 204 203 210 198 190 194 195 194
224 158 150 163 192 163 208 124 129 106 107 70 333 51 272 357 275 294 94 351 360 353 360 10 10 358 354 352 354 236 204 185 177 190 203 212 221 224 193 185 187 194 198 204
146 168 154 164 65 127 152 87 55 58 95 299 212 164 264 204 218 172 335 354 18 15 26 26 22 11 12 7 20 32 140 183 173 187 203 214 217 218 180 189 195 200 198 203
59 192 176 134 91 33 86 101 36 352 356 228 14 142 245 237 234 216 304 19 22 41 52 34 28 24 17 23 18 25 47 55 159 192 212 226 234 227 207 193 198 182 182 197
157 231 166 183 180 164 194 160 159 190 197 233 77 230 249 103 69 104 122 64 27 52 53 56 37 27 22 24 24 25 33 45 42 59 264 271 249 246 214 209 198 204 203 213
151 239 212 87 158 147 197 208 155 104 26 62 211 285 294 90 107 124 122 79 60 49 33 57 44 36 26 28 24 30 30 31 29 20 26 343 288 230 234 229 230 237 226 203
199 123 3 153 127 52 174 152 85 8 135 236 265 267 232 198 181 180 149 131 104 88 54 35 40 31 25 32 24 32 30 25 20 34 31 7 347 347 325 193 216 221 216 159
143 114 294 124 215 169 139 176 79 122 157 171 209 251 225 181 166 166 150 118 111 73 57 40 33 30 33 42 37 36 33 31 23 9 8 34 27 7 342 298 288 258 218 217
181 125 168 201 248 235 199 189 159 171 214 232 146 260 320 151 159 156 132 116 91 78 72 60 45 34 30 32 27 26 20 30 14 19 25 25 18 17 33 49 359 333 294 306
172 199 71 352 332 340 208 178 119 105 85 198 139 252 41 118 136 113 135 124 101 87 65 46 44 34 35 26 25 21 16 10 7 9 23 38 37 17 346 337 353 298 280 276
160 159 211 217 234 140 192 189 189 184 173 207 225 139 207 209 180 156 134 128 117 107 98 89 63 46 36 26 22 14 10 4 1 15 23 26 7 343 299 339 19 358 328 289
163 206 191 79 155 170 176 178 179 200 221 187 229 204 196 197 190 173 158 148 146 146 129 110 96 77 55 43 21 12 13 10 356 26 31 16 351 355 360 1 355 336 289 264
170 200 115 205 193 184 189 204 200 209 221 230 118 235 169 172 118 150 170 167 165 155 151 134 106 87 58 40 25 16 10 10 7 36 28 6 12 12 12 6 352 335 325 315
142 130 117 247 141 110 267 212 200 214 214 212 217 206 152 143 165 175 173 175 164 165 145 126 119 98 65 22 360 21 18 19 40 35 17 14 5 3 360 349 353 350 342 318
138 151 148 168 135 208 255 21 198 211 211 193 100 158 172 175 141 135 161 157 157 152 143 131 121 99 47 16 7 350 19 33 36 27 16 7 1 354 349 347 352 341 331 331
137 144 149 178 207 310 256 198 160 177 239 202 198 146 131 119 90 66 165 155 152 144 132 126 123 109 89 33 354 29 36 34 29 19 5 355 352 348 346 349 342 334 346 340
168 165 137 168 180 205 236 228 158 123 267 186 172 169 154 150 170 194 168 140 123 118 117 122 118 98 72 21 5 47 37 29 18 358 341 329 330 335 331 328 328 334 326 318
156 168 174 175 209 285 220 175 168 159 243 131 180 168 162 177 216 132 130 109 113 112 103 86 79 82 59 22 12 39 35 23 344 330 320 320 325 319 300 319 302 313 326 301
165 166 180 123 142 268 155 77 171 199 36 138 132 158 157 121 115 122 119 125 127 121 90 58 70 60 46 27 26 27 27 351 344 335 328 328 323 321 326 312 300 297 311 291
196 186 174 180 202 202 212 189 141 156 147 176 138 144 136 133 132 131 133 127 121 113 89 62 75 79 59 30 35 23 1 353 347 334 327 321 319 311 314 314 315 306 287 300
266 203 163 106 207 209 206 269 228 189 185 142 133 145 145 137 142 136 134 134 121 110 99 77 76 63 46 31 29 14 359 350 337 334 329 326 326 326 321 315 304 304 302 299
190 140 164 279 147 86 236 219 189 123 102 104 94 121 132 131 129 132 126 126 127 127 106 72 57 45 19 11 4 353 1 347 343 322 315 321 321 319 316 311 309 305 294 284
189 173 177 215 182 171 209 188 158 150 151 145 131 113 82 130 137 134 133 129 127 118 105 84 66 44 351 347 349 349 350 3 347 334 333 326 318 317 310 305 309 297 299 296